Location: Chuathbaluk
(61.5726°N, 159.2454°W)
Time: 15:04:01
(UTC+00:00)

N. Korean satellite - Pass Details

Date: 29 October 2020
Orbit: 453 x 503 km, 97.2° (Epoch: 03 December)

Event Time Altitude Azimuth Distance (km) Brightness Sun altitude
Rises 15:26:45 0° 22° (NNE) 2,495 10.6 -18.5°
Reaches altitude 10° 15:29:10 10° 39° (NE) 1,610 9.8 -18.2°
Maximum altitude 15:31:52 21° 91° (E) 1,077 9.3 -17.9°
Drops below altitude 10° 15:34:33 10° 143° (SE) 1,595 9.6 -17.5°
Sets 15:36:56 0° 160° (SSE) 2,464 10.4 -17.3°
